Theta_e
340 346 349 354 357 356 356 356 358 362 363 358 356 361 362 363 364 367 365 364 361 356 355 351 347 350 355 358 358 358 358 356 351 346 347 350 348 348 348 342 336 338 346 350 352 353 350 342 342 350 350 348 348 346 349 350 351 351 350 350 351 350 350 350 348 348 348 347 346 346 346 345 346 348 350 351 352 352 352 352 352 352 352 352 352 351 350 351 352 351 349 349 349 349 351 351 351
351 355 355 356 355 358 362 359 361 363 360 355 357 362 363 366 366 366 366 366 366 359 353 346 344 355 360 359 360 359 355 355 354 350 349 350 350 350 346 339 336 341 348 350 352 353 348 341 344 352 351 349 346 345 349 349 350 350 349 350 352 352 351 349 349 349 349 348 347 347 347 346 346 346 346 346 348 349 348 348 347 348 349 350 351 351 350 349 349 350 349 348 348 349 351 349 349
357 359 358 356 356 357 361 360 363 359 356 354 356 365 365 368 368 366 365 366 367 357 349 346 347 358 362 358 359 360 358 355 353 351 350 351 351 350 345 336 337 344 348 350 352 352 346 340 347 352 350 349 345 346 348 347 348 348 350 349 350 352 350 350 350 350 350 350 350 348 348 347 346 345 345 344 344 344 343 345 348 349 350 351 351 351 351 349 348 349 349 349 349 349 347 345 346
359 360 359 356 357 358 362 366 366 360 357 354 352 364 368 367 366 364 364 364 364 357 347 349 355 358 360 361 359 362 365 359 352 350 351 350 350 349 343 335 341 347 348 351 352 351 343 341 349 351 350 349 345 346 347 347 348 347 349 348 349 350 350 351 351 352 352 351 349 349 348 348 347 347 347 345 345 344 343 345 347 348 349 350 351 352 352 352 351 350 351 351 350 346 340 340 342
360 360 358 356 360 362 368 369 365 360 359 358 355 363 368 365 365 363 364 363 363 362 354 355 364 360 359 362 362 364 365 361 352 348 350 349 348 347 339 336 345 348 350 351 352 349 341 344 351 350 350 348 345 346 348 349 349 348 348 349 350 349 350 351 352 352 352 350 349 349 349 349 348 349 348 347 348 346 346 346 346 347 347 347 348 349 350 351 351 349 349 348 346 342 337 338 341
359 359 357 356 357 359 368 366 360 360 362 366 364 366 368 364 365 363 361 362 361 363 361 362 364 362 363 360 360 361 358 360 354 348 349 348 348 344 336 340 347 350 351 352 353 347 341 348 352 350 349 348 347 347 347 348 351 349 348 350 350 349 349 350 352 351 349 348 349 350 350 351 350 350 350 349 349 348 349 348 348 348 347 347 345 343 342 343 343 343 346 345 340 338 337 337 339
359 359 359 358 357 362 368 363 359 361 361 366 367 367 367 364 364 361 361 362 360 361 362 364 361 365 367 357 358 357 352 354 350 348 348 347 347 341 337 344 349 351 352 353 353 345 344 351 351 350 349 349 349 349 346 344 349 348 348 349 348 348 348 349 349 348 347 348 349 351 351 351 351 351 351 350 350 349 348 344 343 344 344 345 343 340 338 337 338 338 341 341 337 335 337 338 338
357 358 361 364 367 371 369 362 362 365 363 363 366 366 365 365 363 361 364 364 362 362 362 363 360 365 366 358 363 356 349 349 346 348 347 347 345 340 342 347 349 352 353 353 352 344 344 351 351 350 349 350 350 350 346 344 347 346 348 348 347 348 349 348 347 349 349 348 350 351 352 352 351 351 350 349 347 345 343 339 338 339 340 344 344 341 339 338 338 336 336 336 335 335 337 338 338
355 359 363 365 369 370 366 364 365 367 367 365 364 364 363 364 364 362 365 365 362 360 358 361 360 364 365 361 362 352 348 349 346 347 346 347 343 341 346 347 349 352 353 352 351 342 345 352 350 349 350 350 350 350 347 348 348 344 348 349 348 349 348 349 348 351 349 348 350 350 351 351 350 349 348 346 342 339 338 337 337 337 337 343 345 341 339 339 338 335 334 334 334 336 338 339 339
356 361 363 366 369 364 360 363 367 368 368 365 364 364 363 363 364 363 365 367 364 360 357 358 361 364 364 362 359 352 350 348 346 347 347 345 341 344 348 347 347 350 352 352 349 341 345 351 349 349 351 350 350 351 348 351 350 343 347 348 349 349 348 350 350 350 349 348 349 349 350 349 348 346 344 342 339 338 337 338 339 339 340 345 345 340 340 341 339 337 335 335 334 336 338 340 339
364 366 363 369 367 358 356 361 368 371 368 365 364 364 365 362 364 365 364 366 365 363 359 358 364 364 362 362 357 350 349 347 346 347 347 344 343 347 349 348 347 348 351 350 347 340 342 346 345 348 350 350 350 352 349 351 351 343 345 346 348 349 347 350 350 349 349 349 348 350 351 349 346 343 340 338 338 337 339 343 345 346 347 348 347 340 339 340 339 337 335 334 334 336 339 340 339
366 371 371 373 363 356 359 363 368 371 372 370 366 365 366 362 365 367 364 366 365 364 361 360 365 364 364 365 356 347 348 348 346 347 346 344 344 349 349 350 348 348 349 346 345 341 344 345 344 348 351 351 350 352 350 351 351 343 345 345 346 348 345 349 349 348 349 348 349 351 351 349 346 342 339 339 340 340 344 348 349 351 351 352 348 341 339 338 337 336 335 335 335 335 337 339 340
363 367 370 367 359 362 365 365 368 371 375 375 370 367 364 363 366 365 365 366 364 363 362 360 361 366 367 361 352 347 348 347 346 347 346 345 345 349 350 350 350 348 347 345 345 344 348 349 347 350 352 351 351 352 350 352 351 344 348 348 345 345 344 348 346 346 348 346 347 350 350 349 348 344 340 345 347 346 350 351 351 351 352 353 350 345 342 340 340 339 339 337 336 335 336 338 341
360 364 367 362 359 366 368 366 368 369 377 374 368 366 363 365 365 362 366 366 364 363 359 356 356 365 366 357 352 348 348 347 347 347 345 346 347 348 350 350 351 349 347 346 345 347 350 351 349 350 352 352 351 352 351 352 352 346 349 350 346 343 343 348 347 346 347 346 346 347 348 346 346 343 339 348 351 351 353 352 352 352 352 353 352 350 347 346 346 346 346 344 342 339 336 337 340
360 368 372 369 364 364 364 368 369 368 377 374 366 367 362 363 361 361 368 366 363 358 354 353 352 362 364 362 361 349 345 346 346 347 345 346 346 349 350 350 352 350 348 348 347 349 351 351 350 350 352 353 351 351 352 352 353 349 349 349 346 344 341 344 348 348 347 347 345 342 343 344 345 345 343 349 353 353 354 353 352 352 353 352 352 352 350 349 350 350 350 349 348 345 339 336 337
363 368 371 368 362 358 359 367 367 365 375 372 364 365 363 361 360 363 368 365 360 353 355 357 351 360 362 360 360 346 344 346 345 346 344 345 347 349 351 351 352 350 350 349 350 351 351 352 350 351 352 353 352 350 351 352 353 350 350 347 342 343 340 339 343 345 345 346 346 341 340 343 347 349 348 350 354 353 352 353 353 353 354 353 353 352 352 352 353 352 351 350 349 347 344 339 338
362 365 369 363 360 361 364 369 366 367 374 369 363 363 365 364 361 362 362 362 361 355 357 358 351 358 359 353 350 345 345 345 344 344 343 346 349 351 352 352 352 351 351 350 351 351 351 352 350 351 352 353 352 350 350 351 352 352 351 348 345 346 342 337 337 340 344 344 344 343 337 339 346 350 351 351 352 352 352 353 352 353 354 354 353 353 353 353 353 351 350 349 348 347 347 344 342
361 368 365 361 367 371 371 371 365 367 371 367 364 364 367 366 362 362 360 362 362 357 358 357 355 355 352 349 346 345 344 343 343 343 345 348 350 352 352 352 353 352 352 351 351 352 351 351 351 350 351 353 352 351 350 349 351 352 351 350 351 350 342 336 335 341 344 339 339 340 334 335 341 347 350 350 350 352 355 355 353 354 354 354 353 352 352 351 351 350 349 348 348 347 346 346 345
366 371 362 367 379 374 370 370 364 365 370 367 362 361 365 367 363 361 362 365 362 360 360 359 359 355 349 347 345 345 343 342 342 342 346 349 350 352 352 353 353 352 352 352 352 352 352 351 351 350 350 352 352 351 350 348 349 352 352 349 350 349 341 335 335 338 339 335 336 336 333 334 337 344 348 349 351 353 356 357 355 354 354 354 353 352 351 350 349 349 348 348 348 348 346 346 345
367 365 365 379 378 369 370 373 370 367 370 367 362 359 362 365 361 359 364 367 363 364 363 361 362 356 350 347 345 344 342 341 341 343 346 348 350 351 352 353 353 353 353 352 353 353 353 352 352 350 349 350 351 351 350 348 348 350 351 345 344 345 339 332 333 332 331 331 332 331 332 335 338 344 346 348 351 352 355 355 353 353 353 352 352 351 350 349 349 349 348 348 349 348 347 347 345
364 362 373 381 369 366 373 379 375 366 365 366 363 361 362 362 360 359 364 368 366 365 361 361 360 355 350 347 345 345 342 342 341 343 346 348 350 350 351 353 353 353 352 352 353 353 353 352 353 352 350 349 349 350 349 348 349 348 348 345 340 340 335 328 330 329 327 327 329 331 333 335 340 344 346 348 350 351 353 353 353 353 353 352 352 351 349 349 349 348 347 348 349 348 349 348 345
364 367 374 376 369 366 373 383 377 367 365 366 366 365 364 362 361 361 365 368 366 364 358 358 356 351 351 347 345 345 342 342 342 343 345 348 349 350 351 352 353 352 352 353 353 353 352 352 354 353 351 349 349 349 347 346 347 346 346 348 343 339 333 325 326 327 326 326 327 331 334 337 342 344 346 350 351 352 353 353 353 353 353 352 352 351 350 349 349 348 348 348 349 348 349 348 346
365 372 369 372 374 366 372 383 375 369 369 369 369 365 363 362 362 363 364 363 364 365 358 355 354 350 350 348 346 345 344 343 343 343 345 347 348 349 351 351 353 353 353 353 353 353 352 352 353 354 352 350 349 349 348 347 346 345 345 347 345 341 336 328 325 326 327 326 327 331 336 340 342 343 347 350 351 352 352 352 353 353 353 353 352 352 350 349 349 348 348 348 348 348 349 348 346
362 372 368 368 374 369 373 380 372 369 372 372 367 362 363 365 364 365 366 361 364 369 360 354 353 350 350 349 347 346 346 345 344 344 345 346 348 349 350 350 352 352 352 353 352 353 352 352 352 353 353 350 349 351 352 348 344 345 345 345 343 342 341 334 327 327 328 328 328 331 337 342 343 344 347 350 351 352 352 352 353 353 353 353 352 351 350 349 349 348 348 348 348 348 348 347 346
362 370 374 370 373 376 374 375 372 369 371 370 366 364 367 368 363 364 367 361 363 367 357 354 352 350 351 349 349 348 347 347 346 346 346 346 348 348 349 350 351 352 353 352 352 352 352 352 352 352 352 351 350 351 351 348 344 345 345 344 342 341 343 340 335 333 332 332 332 333 336 340 342 344 346 349 351 351 351 352 352 353 353 353 352 351 350 350 349 348 348 348 348 348 348 347 347
366 366 374 375 375 377 372 373 373 370 371 369 365 368 370 368 363 364 370 363 364 364 355 355 352 351 352 350 350 350 349 349 349 348 348 348 349 350 350 350 351 352 352 352 352 352 352 352 351 351 351 351 350 350 349 346 346 345 343 343 342 343 342 342 341 339 338 337 336 336 337 336 339 344 346 348 350 350 351 351 352 352 353 353 352 351 350 350 349 349 348 348 348 348 347 347 348
365 363 368 375 378 377 371 372 372 368 369 368 367 372 373 366 363 369 373 364 363 366 359 355 353 352 352 351 350 350 350 350 350 351 350 350 351 351 352 352 352 352 352 352 352 352 352 351 351 350 349 350 350 349 347 345 346 345 343 342 343 344 343 344 344 341 341 339 338 340 339 336 339 346 348 348 350 350 350 351 352 352 353 353 352 351 350 350 349 349 348 348 348 347 346 347 348
358 366 366 372 377 373 371 371 369 366 366 369 368 371 371 365 366 373 369 363 363 366 364 357 355 354 351 352 351 350 351 351 351 352 351 352 352 352 353 353 353 353 353 352 352 352 352 352 351 351 349 349 349 348 347 345 345 344 344 343 344 345 346 346 344 342 340 338 340 342 341 338 342 348 350 350 350 351 351 351 352 352 352 352 352 352 350 350 349 349 348 348 348 347 347 347 348
356 366 363 374 380 373 372 374 372 366 365 372 366 362 370 371 371 372 367 366 366 366 364 359 357 355 352 353 351 351 351 350 352 352 352 352 352 353 354 354 354 354 354 353 353 353 352 352 352 351 350 349 348 347 346 345 344 344 345 345 344 345 347 347 344 341 339 338 341 345 345 345 347 350 351 351 351 351 352 352 353 353 352 352 352 352 351 350 349 349 348 348 348 347 347 348 347
359 366 364 373 376 375 372 369 373 367 365 375 361 353 373 383 371 367 370 369 367 368 364 359 359 357 354 354 352 352 351 350 351 351 352 352 352 353 353 355 355 355 355 355 355 355 354 353 353 352 351 349 347 347 346 345 345 345 346 345 345 346 347 346 342 340 339 339 343 346 348 348 349 350 351 351 351 351 351 352 353 353 353 352 352 352 352 350 350 349 349 349 348 347 348 348 347
364 356 363 367 353 365 376 364 371 368 364 374 359 351 372 388 374 363 368 369 369 369 363 359 360 358 357 356 354 353 352 351 351 351 352 352 352 353 353 354 355 355 356 356 356 356 355 355 354 354 353 351 349 348 347 347 347 348 348 347 347 348 348 346 345 343 341 341 344 346 348 349 349 350 351 351 351 351 351 352 353 353 353 352 351 352 351 351 350 350 350 349 348 349 349 348 347
370 338 347 364 349 363 382 366 369 372 367 369 356 356 371 378 370 362 363 367 369 366 363 361 361 361 359 357 356 354 353 351 351 352 352 352 352 352 353 353 354 355 355 355 356 356 356 355 355 355 354 353 351 350 350 350 351 351 350 350 349 349 348 348 348 346 346 345 346 347 347 349 350 350 351 351 351 350 350 352 352 352 353 352 351 351 350 350 350 350 350 349 350 350 350 349 347
369 340 337 359 354 354 368 363 365 371 372 369 358 362 373 366 362 363 361 362 365 365 363 362 361 362 360 358 358 356 355 354 352 352 352 352 352 352 352 353 353 354 354 355 355 355 355 355 355 355 355 355 354 352 353 353 353 353 352 351 351 350 349 348 348 348 349 348 348 348 347 348 350 351 351 351 351 349 350 352 351 352 353 353 351 350 349 350 350 350 349 349 350 350 350 349 348
349 348 343 356 357 347 353 359 361 368 375 374 366 366 372 364 362 367 362 358 363 365 364 363 362 362 361 360 359 358 357 356 354 353 352 352 352 352 352 352 353 353 354 354 354 355 355 355 355 355 355 355 355 355 354 354 354 354 353 352 352 352 350 349 349 350 350 349 350 349 348 348 349 350 351 351 350 350 351 351 351 352 353 353 352 350 350 350 350 350 350 350 350 350 351 350 349
327 337 341 347 351 344 350 354 357 367 373 372 372 370 372 367 363 367 363 360 363 364 362 362 361 360 360 360 359 359 358 356 355 353 352 352 351 352 352 353 353 353 353 353 353 354 354 355 354 354 355 355 355 355 355 355 355 354 354 353 353 353 352 351 350 351 351 349 349 349 349 349 350 350 350 351 350 350 351 351 351 352 353 354 352 350 349 349 350 350 350 350 350 350 350 350 350
324 334 343 345 344 340 351 359 359 368 370 371 374 372 374 369 363 368 367 363 363 362 362 363 363 362 361 360 359 359 358 357 355 354 354 353 352 352 352 352 353 352 353 353 353 353 354 355 354 354 354 354 354 354 354 354 354 354 354 354 353 353 353 353 352 352 351 348 348 350 350 350 350 349 349 350 350 350 351 351 352 351 352 353 352 350 349 349 350 350 350 349 349 349 349 349 350
327 333 339 341 338 333 343 351 357 366 366 367 370 369 372 368 364 368 367 364 364 363 363 365 365 362 361 360 359 359 358 356 354 354 354 354 353 352 352 352 352 352 352 353 352 352 353 354 354 354 354 354 353 353 353 353 354 354 354 353 353 353 353 353 353 351 349 347 348 349 349 350 350 350 350 350 350 350 351 352 351 350 351 352 352 351 348 349 350 350 350 350 349 349 349 349 349
326 327 326 327 330 331 333 342 356 363 361 364 368 367 368 364 361 366 369 368 366 363 363 364 364 362 361 360 358 358 357 356 356 355 354 354 355 353 353 352 352 352 351 351 352 351 352 352 353 354 353 353 353 353 353 353 353 353 353 353 352 352 352 352 351 349 346 346 347 348 348 349 351 351 351 350 350 350 351 353 351 350 351 351 352 352 350 349 349 350 351 350 351 350 350 349 349
324 324 321 320 328 330 328 344 364 362 356 364 370 372 370 364 361 365 370 372 369 363 360 361 361 362 362 360 358 358 357 358 358 356 353 353 354 353 353 353 352 353 351 351 351 351 351 351 352 352 352 353 353 353 352 352 352 352 352 352 352 352 351 351 350 346 345 346 348 349 347 348 350 350 350 350 350 351 352 353 351 351 351 351 351 352 351 349 348 350 350 351 351 351 351 350 350
325 324 319 321 328 324 316 334 364 364 351 355 365 372 372 360 358 362 363 365 366 362 360 360 361 362 361 359 358 357 357 358 357 356 353 353 353 353 353 353 353 353 352 351 350 349 349 350 351 351 352 352 352 352 352 352 352 352 352 352 351 352 351 351 350 348 348 348 350 349 347 347 349 349 350 350 350 351 353 353 352 352 351 351 351 351 351 349 347 350 351 352 352 351 352 351 351
329 326 322 324 324 325 323 332 362 370 357 359 359 353 355 353 353 356 356 358 361 360 362 364 362 361 359 358 358 357 357 357 356 356 354 353 353 352 352 353 353 353 353 352 350 349 348 349 350 350 351 351 351 352 352 352 352 352 352 352 351 351 351 350 350 350 350 349 350 350 348 347 348 348 349 350 351 352 353 352 352 352 352 351 351 351 352 349 347 349 351 352 352 352 353 352 353
325 326 327 328 323 342 356 353 360 355 341 351 349 332 340 355 354 351 350 355 361 361 364 366 364 363 361 360 359 358 357 356 356 355 354 353 352 352 352 352 353 353 353 353 352 351 348 348 349 349 350 350 351 351 351 351 351 351 351 351 351 350 350 350 350 350 350 349 349 349 349 348 348 348 350 352 353 354 353 352 352 352 351 351 350 351 352 350 347 349 351 352 352 352 352 353 353
320 324 328 331 337 361 373 356 345 337 326 334 342 333 337 349 350 350 350 356 365 365 365 365 364 365 364 360 357 358 358 357 356 355 354 353 352 352 352 352 352 352 353 353 353 352 350 349 348 348 349 349 350 350 351 351 351 351 351 351 351 350 350 350 350 350 350 349 348 349 349 349 349 349 350 354 354 354 353 352 352 351 351 350 350 351 353 350 347 348 350 351 352 352 352 353 353
319 325 327 333 343 358 371 357 339 337 328 329 345 344 336 338 344 351 352 360 370 366 359 358 357 360 362 360 359 360 360 359 358 356 355 353 352 351 351 352 352 352 353 353 352 353 352 351 348 348 348 349 349 350 350 351 350 351 351 351 351 350 350 350 350 350 350 350 349 349 349 349 349 350 352 355 354 354 353 352 352 351 350 350 350 352 353 350 348 348 350 352 353 353 353 353 353
327 331 327 330 334 339 357 354 339 335 322 320 335 336 330 337 348 351 355 368 375 363 354 353 354 357 360 360 359 360 360 360 359 358 357 353 350 351 351 351 351 351 352 352 352 352 352 352 350 348 348 348 349 350 350 350 351 351 351 351 350 350 350 350 350 350 350 350 350 350 350 350 351 352 354 354 353 353 353 352 351 350 350 350 351 353 353 351 350 350 351 352 353 354 354 354 354
328 327 325 330 335 338 345 341 335 334 322 317 326 326 325 338 350 353 357 366 367 360 355 355 356 356 356 357 355 354 356 356 357 357 355 350 349 351 350 350 350 350 351 351 352 351 351 351 351 349 348 348 348 349 349 350 350 351 351 351 350 350 351 350 350 351 350 351 351 351 351 352 353 354 354 353 353 353 352 352 351 351 350 351 352 353 352 352 351 351 352 352 353 354 354 355 354
326 329 331 330 337 348 353 349 339 328 321 323 329 332 328 329 343 354 355 357 357 357 359 358 356 355 355 355 353 351 351 351 351 352 351 349 349 350 349 349 349 349 350 351 351 351 351 351 350 349 348 348 347 348 349 350 350 350 351 351 350 350 350 350 351 351 351 351 351 352 352 353 354 354 354 352 352 352 352 352 351 351 351 351 353 353 353 353 352 351 352 351 352 353 354 354 354
331 339 335 323 329 338 340 344 337 321 321 329 335 341 334 329 341 354 353 354 356 356 358 357 355 355 355 354 352 350 349 348 348 348 348 348 349 349 350 350 350 350 350 350 350 350 351 350 349 349 349 348 347 347 348 349 349 350 351 351 351 350 350 351 351 350 351 351 351 352 352 353 353 353 353 352 352 352 352 352 351 351 351 352 353 353 353 353 353 353 353 352 352 352 353 354 353
333 339 334 322 326 326 324 332 329 319 322 328 333 339 336 339 351 356 352 353 357 357 357 356 355 353 352 352 350 348 347 346 346 346 346 347 348 347 348 349 350 350 350 350 350 350 350 350 350 349 349 348 347 347 347 348 349 349 350 350 350 351 350 350 351 350 350 351 351 351 352 352 353 353 352 351 352 352 352 351 351 351 352 352 353 353 353 353 353 353 353 353 353 351 352 353 353
329 330 327 323 327 323 324 334 325 318 327 331 335 337 334 342 353 355 354 353 354 358 358 357 356 354 352 349 347 346 346 346 346 346 346 346 346 345 345 347 348 349 350 350 350 350 350 350 350 349 349 349 348 347 347 347 348 348 349 350 350 350 351 350 350 350 351 351 351 351 351 352 352 351 351 351 352 352 351 352 351 351 352 352 353 353 353 353 353 353 353 354 354 351 351 352 352
329 332 326 321 326 320 320 330 323 320 330 333 335 334 335 344 350 352 356 353 353 357 357 358 357 354 352 348 347 346 346 346 345 346 346 345 344 344 344 346 346 347 349 350 350 350 350 350 350 350 349 349 349 348 348 347 348 348 349 349 350 350 350 350 350 350 350 351 351 352 352 351 351 351 350 352 353 352 351 351 351 351 352 352 353 354 353 353 353 353 353 354 354 352 350 351 352
325 330 323 318 327 327 324 328 327 325 328 331 335 338 344 352 351 353 357 354 355 355 353 354 353 353 351 347 348 347 345 346 345 345 346 344 343 344 344 345 346 347 347 348 350 350 350 350 350 351 350 350 349 349 349 349 348 348 349 349 349 350 350 350 350 350 351 351 351 352 352 352 352 351 350 352 353 353 351 351 351 351 352 352 353 354 353 353 353 353 353 354 355 353 351 352 353
326 323 320 320 327 337 330 323 327 328 323 327 337 344 353 353 347 352 355 354 356 353 351 351 350 353 352 348 348 348 346 346 345 345 345 344 343 343 344 345 346 347 347 348 349 349 350 350 350 351 350 350 350 350 350 349 350 350 349 350 349 350 351 350 351 351 351 352 352 353 352 352 353 352 351 352 353 353 352 351 351 351 351 352 353 353 353 353 354 353 353 354 355 354 352 353 353
329 321 324 325 323 335 332 321 327 329 323 329 338 347 352 345 345 353 352 355 359 354 353 353 351 354 353 349 349 348 347 346 345 345 344 343 343 342 344 345 345 347 348 348 349 349 349 349 350 350 350 351 350 351 350 350 350 351 350 351 350 350 350 350 351 351 351 352 353 353 353 352 353 353 352 352 352 353 353 352 352 351 351 352 352 353 354 354 354 354 354 355 354 353 353 353 353
329 323 328 324 318 325 325 320 325 323 323 333 337 344 350 345 351 357 349 356 364 358 357 357 355 357 355 351 349 347 347 346 345 345 344 343 342 342 344 344 345 347 347 349 349 349 350 350 350 350 350 351 350 350 351 350 351 352 351 351 351 350 350 350 351 351 352 353 353 353 353 353 353 353 353 352 352 353 353 353 352 351 351 352 353 354 354 355 355 355 355 355 354 352 352 353 353
331 329 330 329 327 326 320 319 321 319 325 334 333 338 348 349 356 361 355 362 365 358 358 359 357 357 355 350 349 348 348 347 345 344 344 343 342 342 343 344 345 346 347 348 349 350 352 351 350 350 350 351 351 350 351 350 351 352 352 353 352 352 351 350 351 352 352 353 353 353 353 353 353 353 353 352 353 354 354 354 353 352 351 352 353 353 354 355 355 355 355 355 355 354 352 353 353
329 328 326 329 331 324 318 319 320 320 327 335 334 337 348 351 351 357 362 362 357 353 356 357 356 356 354 351 350 351 349 347 345 343 343 343 341 341 343 343 345 346 346 348 348 349 351 351 350 350 350 350 350 351 351 351 351 351 352 353 353 352 352 351 351 352 353 353 353 353 354 354 354 353 353 353 354 354 354 354 354 352 352 352 352 353 354 354 355 355 355 355 355 355 354 353 353
328 329 324 324 325 323 322 320 321 324 327 332 332 331 341 348 344 349 358 356 353 354 355 356 357 355 353 353 352 350 349 346 343 343 342 342 341 341 342 343 344 345 346 347 348 349 350 351 350 349 349 350 350 351 352 351 351 352 352 353 353 353 353 352 351 351 351 352 353 354 354 354 354 354 354 354 354 354 354 354 354 352 353 353 353 353 353 354 354 354 355 355 355 356 355 354 352
Wind_Speed
10 10 10 9 6 4 2 1 0 1 2 2 1 0 0 1 1 2 3 4 4 4 4 8 10 6 4 4 6 4 2 7 5 4 4 3 11 31 31 28 31 30 27 25 23 21 17 16 16 16 14 13 12 14 15 14 13 13 12 12 11 9 9 8 8 8 8 8 8 7 7 7 6 6 4 4 4 3 2 1 0 1 1 3 3 3 3 3 4 5 4 4 5 6 6 7 7
10 9 7 7 6 4 1 1 2 2 3 2 1 0 1 2 1 3 5 4 1 4 6 10 11 3 3 4 5 2 2 1 3 3 1 6 19 28 29 29 33 31 28 26 24 21 18 17 17 16 13 12 13 14 14 13 13 13 12 12 12 10 9 9 8 8 8 7 7 7 6 5 4 4 3 3 3 3 3 1 1 2 2 3 4 4 5 4 5 5 5 5 6 7 8 8 8
10 7 4 6 4 2 0 1 2 0 3 3 1 2 1 1 2 3 2 1 0 5 8 11 8 3 4 4 4 3 2 1 3 3 3 15 18 22 30 31 33 30 28 26 24 22 19 19 18 17 14 12 12 14 14 14 14 13 12 11 11 10 10 9 8 7 7 6 6 6 5 4 3 3 2 2 1 1 1 1 2 3 3 4 4 5 6 6 6 6 6 7 7 8 9 9 9
11 7 4 5 0 1 1 2 1 2 2 2 0 2 1 1 3 3 2 1 1 6 8 10 4 2 4 4 3 2 2 1 5 5 6 16 17 26 33 33 34 30 29 26 24 23 20 20 19 17 15 12 12 14 14 13 13 12 12 10 10 10 10 9 8 7 6 6 5 5 5 4 4 3 3 3 3 3 3 3 3 3 3 3 4 5 6 7 7 7 7 8 8 8 9 10 10
11 7 5 3 1 0 1 2 1 2 1 2 1 1 0 1 2 3 2 2 3 5 5 7 3 1 3 3 2 2 3 1 6 7 9 16 20 31 34 34 34 30 29 26 24 23 21 21 19 17 15 13 12 14 13 13 11 11 11 10 9 9 10 9 8 7 6 6 5 5 5 4 4 4 4 4 4 4 4 4 4 4 4 4 5 6 7 8 8 8 8 8 9 9 10 10 11
10 6 4 3 0 1 2 2 1 2 1 2 2 1 1 1 1 3 3 4 5 4 1 4 4 3 2 1 0 3 4 4 7 9 15 19 23 34 35 35 34 30 29 25 24 23 22 20 18 17 15 13 13 12 12 12 11 10 10 9 9 8 9 9 8 7 7 7 6 6 5 5 4 5 5 5 5 5 4 4 5 5 5 6 6 7 7 8 8 8 9 9 9 9 9 10 11
6 3 1 1 1 1 3 2 1 1 1 1 2 0 1 1 1 5 5 4 3 2 1 1 4 5 0 1 1 1 2 4 7 12 20 23 28 36 36 36 33 30 28 25 25 24 23 20 18 17 15 14 13 11 10 12 11 11 10 8 9 8 8 7 8 8 7 7 6 6 5 4 4 5 4 4 4 4 4 4 5 6 6 6 7 7 7 7 8 8 9 9 9 9 9 10 10
1 1 0 2 1 2 3 1 1 1 1 0 1 1 1 1 2 5 5 2 2 0 0 2 5 5 2 1 1 1 2 3 8 16 24 26 33 37 36 37 33 29 27 26 25 25 24 20 19 18 16 14 13 12 10 11 10 10 9 8 8 7 7 6 7 7 6 6 6 6 4 3 3 3 2 2 2 3 4 5 6 6 6 7 7 8 8 7 8 8 8 8 8 9 9 10 10
2 1 0 2 1 2 2 1 1 0 1 1 2 1 1 1 1 5 5 3 2 2 2 4 5 4 2 2 1 1 4 7 13 21 25 30 37 37 36 37 33 29 27 26 25 26 24 20 20 18 16 14 13 12 10 10 8 9 9 7 8 7 6 6 6 5 5 5 5 5 4 3 2 1 0 2 3 4 5 6 6 7 7 7 8 8 8 8 8 8 8 8 8 8 9 9 10
3 1 1 1 2 3 2 2 1 0 0 2 2 2 1 1 2 4 4 2 1 2 4 5 4 4 2 1 1 2 5 13 20 22 26 33 36 35 36 35 34 31 27 26 26 27 26 21 20 18 16 15 13 12 10 10 8 9 9 8 8 7 7 5 5 5 4 4 4 4 3 2 2 1 1 2 3 4 5 6 6 7 7 8 8 8 8 8 8 8 8 8 8 8 9 9 9
2 2 2 2 3 2 2 3 2 2 1 1 2 2 2 1 3 3 3 2 1 2 5 4 3 4 2 1 1 0 11 19 24 26 29 35 35 34 35 34 33 31 29 27 27 27 25 21 19 18 17 15 14 12 11 11 9 9 8 8 8 7 7 6 5 5 4 4 4 3 2 2 2 1 1 2 3 4 5 6 7 7 8 8 8 8 9 9 9 8 9 8 8 8 9 9 9
2 3 2 3 2 1 1 2 3 4 3 2 2 2 1 2 3 3 3 2 2 1 2 4 4 4 3 1 2 3 12 17 24 29 31 34 33 33 33 33 32 30 29 28 27 25 23 20 19 19 17 15 14 12 12 11 10 9 9 8 8 7 7 7 6 6 5 4 4 3 3 3 2 1 1 3 4 4 5 6 7 8 8 9 9 9 9 9 9 9 9 9 9 9 9 9 8
1 1 3 2 1 0 1 2 3 4 3 1 2 1 2 3 1 3 4 3 4 2 3 4 4 5 3 0 1 4 7 13 24 30 31 32 31 31 31 31 30 29 29 28 27 25 23 21 19 19 17 16 15 13 12 11 10 10 9 8 7 7 7 7 7 6 5 5 5 4 4 4 3 2 1 2 3 3 5 6 7 8 8 9 9 9 10 10 9 9 9 9 9 9 9 9 8
1 1 3 2 1 1 1 1 3 3 2 1 2 2 2 2 2 3 4 3 3 3 2 5 6 4 2 1 1 3 5 14 25 30 30 29 28 29 29 29 29 28 28 28 27 25 25 22 20 20 18 17 16 14 13 12 11 11 10 8 7 7 7 7 6 6 5 6 5 4 4 4 4 3 2 1 3 4 5 7 7 8 8 9 10 10 10 10 10 9 10 10 10 10 10 9 9
1 1 3 2 1 1 0 1 1 2 2 2 3 3 3 2 3 3 3 3 2 2 4 5 4 2 3 4 4 5 11 20 27 30 29 26 26 26 26 27 27 27 27 28 27 25 25 23 21 20 20 19 17 16 14 13 11 11 10 9 9 7 8 8 7 7 7 6 5 5 4 5 4 4 3 3 4 4 5 6 7 7 8 9 9 10 10 10 10 10 11 11 11 10 10 9 9
2 2 3 2 1 0 1 2 2 1 3 2 3 4 4 2 3 2 2 2 1 4 4 3 3 2 5 5 4 12 21 25 28 30 28 25 24 23 23 24 25 25 26 27 26 25 25 24 22 21 21 20 18 17 15 14 12 11 11 10 10 9 9 8 8 8 7 6 6 6 5 5 5 5 4 4 4 4 5 6 7 7 7 8 8 9 9 10 10 10 11 12 12 10 10 10 9
2 3 2 1 1 2 2 3 3 2 3 1 3 4 4 2 2 2 2 2 2 5 3 2 2 1 4 4 12 23 27 27 29 30 27 24 22 21 22 22 23 24 24 26 26 25 25 25 24 23 22 21 19 17 16 16 13 12 11 11 11 10 10 9 8 8 7 7 7 7 7 7 6 6 5 4 4 3 5 6 7 7 7 8 8 8 9 9 10 11 12 12 12 11 10 10 9
2 2 1 1 2 2 3 5 4 3 2 3 4 4 4 3 3 2 2 2 2 4 3 2 3 4 6 12 22 28 28 28 30 29 26 22 21 20 21 22 23 23 24 25 25 25 25 25 24 23 23 21 20 19 18 17 15 13 13 13 12 11 11 10 10 9 9 10 9 8 8 8 8 7 6 5 5 4 5 7 7 7 7 8 8 9 9 9 10 11 12 12 12 11 10 10 10
2 2 1 2 4 3 4 5 4 3 3 5 4 5 4 2 4 3 3 3 3 5 3 3 4 5 10 16 24 27 28 28 27 27 25 22 21 20 20 21 22 22 24 25 26 25 25 25 24 24 24 22 21 20 19 18 17 16 15 14 14 13 12 11 11 11 11 11 10 10 9 9 8 7 7 6 7 6 7 8 7 8 8 8 9 9 9 9 9 11 11 11 10 10 10 10 10
1 2 0 4 5 3 3 4 5 4 2 5 3 4 4 3 3 3 3 4 4 6 5 4 5 5 9 14 21 25 26 25 25 25 23 22 22 21 21 21 21 22 24 25 25 25 25 25 25 25 24 23 22 21 20 19 18 17 16 16 15 15 14 13 12 12 12 12 11 11 9 9 9 8 7 7 8 8 8 7 7 8 8 8 9 9 9 8 9 10 11 10 9 9 10 10 11
1 3 3 4 3 1 4 4 4 2 1 4 4 3 3 3 2 3 4 5 4 6 8 8 9 10 12 13 17 23 23 22 23 22 22 22 22 22 22 22 22 22 24 24 25 25 26 26 26 26 25 25 23 22 21 20 20 19 18 17 17 16 15 14 13 13 12 12 12 11 10 10 10 9 8 7 7 7 7 6 7 9 9 9 9 10 9 9 10 10 11 9 9 9 10 12 14
1 3 5 4 3 1 4 4 3 2 3 4 5 4 3 2 2 4 6 7 5 5 8 9 10 12 15 16 17 19 20 19 20 21 22 22 22 22 22 22 22 23 24 25 26 26 26 26 26 26 26 26 25 24 23 22 21 21 20 19 18 17 16 14 14 14 13 13 13 12 11 11 11 10 9 8 7 6 6 7 8 9 9 9 10 11 11 9 10 11 11 10 9 9 11 12 14
1 4 3 3 3 2 2 3 2 4 5 4 5 3 3 3 2 3 6 9 3 0 5 9 10 14 17 18 17 17 17 18 20 22 24 24 24 24 24 24 23 23 24 24 26 26 26 26 26 26 27 27 27 25 24 24 22 22 21 19 19 18 17 16 15 15 14 14 14 14 13 12 12 11 10 9 7 7 8 8 9 10 10 10 10 11 10 9 10 10 10 10 10 10 11 12 14
2 4 4 2 4 4 2 4 4 4 5 4 4 2 3 5 3 1 6 10 3 3 3 10 11 15 17 16 16 16 17 18 20 23 24 25 25 25 24 24 23 23 23 24 26 26 26 26 26 26 27 28 27 26 25 24 23 23 22 21 20 19 18 18 17 16 16 16 16 16 15 15 14 13 12 10 9 9 9 9 9 10 10 10 9 9 9 9 9 9 10 10 10 11 12 13 15
4 5 4 0 2 3 1 4 5 4 3 1 4 3 4 6 2 1 7 10 4 1 2 9 11 13 14 15 16 15 15 17 19 21 22 23 23 23 22 22 22 23 24 25 26 26 27 27 26 27 28 28 27 26 26 25 25 24 23 23 22 21 20 19 18 18 19 18 18 17 17 17 16 14 13 11 10 10 10 10 10 11 11 10 9 8 8 9 10 9 10 10 11 12 12 13 14
6 6 3 3 1 2 1 4 5 3 2 3 4 3 4 3 1 4 8 8 4 3 5 9 12 13 13 13 15 15 14 16 19 21 22 22 22 22 23 23 24 24 26 26 26 27 28 28 28 29 29 28 28 27 27 26 26 25 24 24 24 23 22 21 20 20 20 20 19 18 18 18 16 15 14 12 11 12 11 11 12 12 12 10 8 7 8 9 10 9 10 11 12 13 13 13 13
6 5 3 3 2 1 2 3 4 3 2 4 5 5 4 0 1 4 7 3 5 7 6 9 11 13 13 12 13 14 14 18 21 21 20 20 22 23 23 24 25 25 25 25 26 27 27 28 29 30 30 29 28 28 28 28 27 27 26 26 26 25 23 23 22 21 21 22 20 18 17 17 16 15 14 13 13 13 12 12 13 13 12 10 8 8 8 9 10 9 10 11 12 14 13 12 11
3 4 3 2 3 1 2 2 3 2 1 5 5 3 2 2 2 7 6 1 6 8 8 9 10 11 12 12 12 12 13 18 22 21 20 22 23 25 25 26 26 25 26 27 27 26 26 28 29 30 30 30 29 30 29 29 28 28 27 27 27 26 25 24 23 22 22 22 20 17 16 16 16 15 15 14 14 13 13 14 14 14 13 11 9 9 9 9 9 9 10 11 12 13 13 11 10
1 4 2 4 6 2 3 2 3 4 2 4 4 3 3 3 7 8 2 4 6 8 8 8 9 9 10 11 10 9 11 16 20 20 22 24 24 25 26 26 27 25 25 27 26 26 26 28 28 29 30 30 31 31 31 30 30 29 29 29 29 28 26 25 24 23 23 22 19 16 15 15 16 16 16 15 15 15 15 15 15 15 13 12 11 11 10 9 9 9 9 10 10 11 12 11 10
1 3 2 2 6 5 5 0 3 5 2 4 5 2 5 7 10 6 1 6 8 8 8 8 7 7 8 8 8 8 11 14 17 19 23 24 23 25 25 26 27 25 24 24 25 26 26 27 28 29 30 31 32 32 31 31 31 31 30 30 30 29 26 24 23 23 23 22 19 17 16 16 16 17 17 17 17 17 16 16 16 16 14 13 12 12 11 9 10 10 10 10 10 11 11 10 10
0 1 2 2 1 4 6 1 5 5 1 3 5 1 6 7 9 7 2 6 9 8 8 8 7 6 6 7 8 8 10 14 18 20 22 24 24 24 25 26 26 26 24 24 26 26 26 26 27 28 30 31 32 32 32 32 32 31 30 30 30 29 27 23 21 21 22 22 20 18 17 17 17 17 17 18 18 18 18 17 17 16 14 13 13 12 11 9 10 10 10 11 11 11 10 10 10
2 1 3 3 1 4 7 3 7 5 1 2 4 1 6 7 8 6 3 7 8 8 7 7 7 6 6 6 7 7 8 12 17 20 21 23 25 25 25 26 27 28 27 26 26 26 26 27 27 28 29 30 31 32 32 32 32 30 30 29 28 28 27 24 21 20 21 21 20 20 19 18 18 18 18 18 19 18 18 18 17 15 14 13 12 12 11 10 10 11 10 10 11 11 10 10 9
3 1 2 3 1 3 5 3 4 3 3 1 2 2 3 4 5 5 2 6 7 7 6 7 7 6 7 6 6 7 6 9 12 17 21 24 25 26 26 27 28 29 28 27 27 27 27 27 28 29 30 31 32 32 32 32 32 31 30 29 28 27 27 25 23 21 21 20 20 20 19 19 19 18 18 18 18 18 18 18 17 15 14 13 12 12 11 10 10 11 10 9 10 11 11 10 10
4 2 1 3 2 2 3 4 3 3 4 3 3 3 5 5 4 5 3 5 6 7 6 7 7 6 6 5 6 6 7 8 10 15 22 24 25 26 26 27 28 29 29 29 28 29 29 29 29 30 31 31 32 32 32 32 32 31 30 29 28 27 26 26 24 23 22 21 21 20 19 20 20 18 18 18 18 18 18 18 17 16 14 13 12 12 11 10 9 10 9 8 9 11 11 10 10
3 2 2 3 2 3 4 4 3 6 4 4 5 5 11 11 6 3 1 4 6 6 6 6 6 6 6 6 7 7 8 9 11 16 22 23 24 25 26 26 28 29 30 30 29 29 29 29 30 31 32 32 32 32 31 31 30 29 29 29 28 28 27 26 25 25 24 23 23 21 20 20 20 19 19 19 18 18 18 19 18 17 15 13 13 13 11 10 8 8 8 9 10 11 11 10 10
2 2 3 3 4 5 5 5 5 8 5 4 7 7 10 10 6 4 3 4 5 5 5 4 5 5 5 6 6 7 9 10 11 16 19 22 23 24 25 26 27 29 30 30 30 30 30 30 30 31 32 33 31 30 28 28 27 27 27 27 27 28 28 27 26 26 25 24 24 23 22 21 21 21 21 20 20 20 19 20 19 17 16 15 14 13 13 11 8 8 8 9 11 11 11 10 9
1 1 3 4 4 6 4 4 6 6 5 4 7 7 9 8 5 3 3 2 4 5 5 5 5 5 6 7 7 9 9 8 9 14 17 20 22 22 23 24 25 27 29 30 30 31 31 31 31 31 33 33 31 30 29 28 28 27 27 27 28 28 29 28 28 27 26 25 25 24 23 22 22 22 22 22 22 21 21 20 19 18 17 16 16 15 14 13 10 9 9 9 10 11 12 10 8
3 3 4 4 3 6 4 3 5 2 2 3 3 6 9 8 4 3 1 3 5 7 7 7 7 6 5 7 9 9 7 5 6 10 15 19 21 22 22 23 24 26 28 30 32 32 33 33 33 33 34 33 32 32 31 31 31 31 29 30 30 30 29 29 28 28 26 26 25 24 24 23 23 23 23 23 23 23 22 21 20 19 18 18 17 16 15 15 13 11 10 10 10 10 12 11 9
3 2 0 3 4 3 3 4 4 1 1 4 2 4 7 7 5 4 3 5 5 7 9 8 8 7 6 7 8 7 6 5 5 7 11 17 20 21 21 22 25 26 26 29 31 32 32 33 34 34 34 33 34 34 33 33 34 33 32 31 30 29 28 28 27 26 26 25 24 23 24 24 24 23 22 23 24 24 22 22 21 20 19 19 18 17 16 16 15 13 11 11 11 11 11 10 9
3 3 3 3 5 1 2 4 3 3 1 1 0 2 4 6 5 4 3 5 4 4 7 6 6 7 8 8 6 6 8 8 7 7 8 12 16 19 22 22 23 24 24 25 28 30 31 33 34 35 34 34 35 35 35 36 35 33 32 30 28 26 25 24 23 24 25 25 24 24 24 25 24 23 21 22 24 24 23 22 21 21 20 19 19 18 17 17 17 15 13 12 11 11 10 8 7
4 4 5 4 4 2 1 1 2 4 2 1 3 4 5 5 6 6 5 4 3 1 5 5 5 5 5 6 6 7 8 8 9 8 8 9 13 20 25 25 22 22 24 24 25 28 30 33 34 35 36 36 35 36 36 36 32 30 28 26 24 22 21 20 20 22 24 25 25 25 24 25 24 22 22 22 24 23 22 22 22 22 22 20 19 18 17 17 17 16 14 13 12 11 10 8 8
4 4 8 7 4 6 5 3 4 5 4 2 2 4 4 5 5 7 7 5 5 2 2 3 4 3 4 5 5 6 6 6 7 8 8 9 13 18 23 25 23 22 25 27 26 27 28 30 34 35 36 36 36 37 36 34 32 30 28 25 24 22 22 23 24 25 26 26 26 25 25 24 24 23 22 22 23 23 22 22 23 23 22 20 19 18 17 17 18 17 15 14 13 12 11 10 9
3 3 7 6 6 8 6 5 3 2 1 3 2 4 2 5 6 8 9 7 6 4 4 4 4 3 4 4 3 3 4 4 5 5 6 8 11 14 18 23 25 25 29 29 27 27 27 27 30 34 36 36 37 37 36 34 33 31 30 29 29 27 26 28 30 30 28 27 26 26 25 25 25 24 23 22 22 22 22 23 23 23 21 19 18 18 17 18 18 17 15 14 13 12 11 10 10
2 4 5 7 6 6 7 6 4 3 3 3 4 4 2 3 4 7 8 6 6 7 7 7 6 4 3 2 2 3 4 4 4 5 5 6 10 13 16 21 24 27 31 30 28 28 29 28 28 31 35 36 37 37 36 35 35 34 33 32 31 30 30 31 31 30 28 28 27 26 26 25 25 24 24 22 21 22 23 23 24 23 20 18 17 17 18 18 17 16 15 14 12 11 11 11 10
5 5 6 5 5 4 5 6 4 0 1 2 6 3 3 4 5 7 7 5 7 8 8 8 6 5 3 2 1 2 3 4 5 5 6 7 10 14 18 20 20 23 29 31 31 29 29 29 28 29 32 36 37 37 36 36 37 36 35 33 31 31 32 32 30 28 27 27 27 27 26 25 24 24 24 22 21 21 22 23 23 22 20 18 17 17 17 17 17 16 15 14 12 11 10 11 11
4 4 6 4 4 4 4 5 4 3 3 2 5 2 2 4 5 6 6 5 5 7 6 6 5 5 5 4 4 4 3 1 2 4 5 8 13 17 19 19 19 21 26 29 30 29 28 29 29 29 31 34 36 37 37 37 38 37 35 34 33 32 32 30 28 27 27 26 26 27 26 25 25 25 24 23 22 21 21 22 22 22 20 18 16 16 15 15 16 17 17 15 13 12 11 11 12
1 5 5 4 5 4 4 3 4 4 2 5 5 1 4 2 4 4 3 2 4 4 4 5 5 5 4 4 5 4 4 4 3 3 3 5 9 14 17 18 19 20 23 25 27 29 29 29 29 29 31 33 35 37 37 38 38 38 37 36 36 35 33 30 28 28 28 27 27 28 27 26 26 26 25 24 23 22 21 21 22 22 21 19 17 16 15 15 15 16 16 15 15 14 13 12 12
3 4 4 3 4 4 4 5 4 4 2 5 3 1 5 2 3 3 3 4 3 2 2 4 5 5 5 4 4 4 4 5 5 5 5 6 7 7 10 13 16 18 22 24 26 28 29 29 29 30 31 33 35 37 38 39 39 38 39 38 38 38 35 32 30 31 30 29 29 29 28 27 27 27 26 24 23 22 21 22 22 22 22 20 19 19 17 16 15 15 15 15 15 16 15 14 13
5 4 4 4 3 4 2 3 3 1 3 3 2 1 2 1 4 4 3 4 3 3 3 3 4 5 5 4 4 5 5 6 6 6 6 6 6 8 10 11 11 14 20 24 26 27 29 29 30 31 33 35 36 37 39 39 39 40 40 40 40 39 37 34 33 33 32 31 31 30 29 29 28 27 25 24 22 20 21 22 21 22 22 21 21 20 19 18 17 16 15 15 15 16 16 15 14
4 1 2 3 2 3 1 3 2 2 3 2 3 2 1 2 3 4 4 4 4 4 3 3 3 5 4 4 4 5 6 7 6 6 6 5 5 8 12 14 14 14 16 20 23 26 27 29 30 31 33 35 36 37 38 38 40 41 42 41 41 39 37 35 35 34 33 32 32 31 30 29 28 27 26 23 20 19 21 21 20 21 22 22 21 20 19 19 18 18 17 16 15 16 16 16 14
1 3 4 2 4 3 2 3 2 3 3 3 4 2 2 2 2 4 4 3 4 3 2 3 3 5 5 3 4 6 6 6 6 7 7 7 8 10 12 14 15 16 17 17 19 23 26 28 31 32 32 32 33 35 36 37 39 41 42 41 41 40 38 37 36 35 33 32 32 31 30 29 28 27 26 22 19 19 19 18 19 21 21 22 22 21 20 19 19 18 18 17 16 15 15 15 13
2 2 3 0 4 4 1 3 4 3 1 2 2 1 3 3 3 5 2 2 4 3 4 3 4 5 3 4 6 6 6 6 6 6 7 9 11 13 13 14 16 17 18 18 18 19 24 28 31 34 34 33 33 34 35 37 40 41 41 41 40 39 37 36 35 34 33 32 32 31 30 29 28 27 26 23 20 19 19 18 18 19 20 21 22 21 20 19 19 19 18 18 16 15 14 13 11
1 1 1 3 3 6 4 2 0 3 1 2 1 1 4 2 3 4 1 2 3 2 3 4 3 4 5 6 6 6 7 6 6 6 6 8 11 14 15 16 17 17 18 19 19 19 21 26 30 32 34 35 34 34 35 38 39 38 39 40 39 37 35 34 35 34 33 32 31 31 30 29 28 27 27 25 22 21 20 19 19 19 20 21 22 22 21 19 19 18 18 18 16 14 13 12 11
3 1 4 2 2 4 4 1 2 4 1 3 1 1 3 1 1 3 2 3 3 1 3 3 4 6 7 6 6 6 6 6 6 6 6 7 10 13 16 18 19 19 20 20 20 20 21 24 28 31 34 35 34 35 37 38 38 38 38 38 38 38 38 36 36 35 33 31 30 30 29 28 28 27 26 25 23 22 21 21 21 20 21 22 22 22 21 20 19 18 18 17 15 14 13 12 12
3 3 3 2 2 0 1 1 1 1 1 3 3 2 2 3 3 3 4 6 4 3 4 4 6 6 6 7 7 6 7 7 7 8 7 8 10 13 17 20 22 22 22 22 21 21 22 22 26 31 34 35 35 36 37 38 38 37 37 38 40 42 42 40 38 35 32 30 29 30 29 29 28 27 26 26 25 23 21 21 22 22 22 23 22 22 22 20 19 18 18 16 15 15 15 14 13
3 2 2 2 3 3 1 1 2 3 2 2 3 3 3 5 4 4 6 6 4 2 3 4 5 5 5 5 5 6 7 7 7 7 7 8 11 15 17 20 23 23 23 23 22 21 22 22 23 29 33 35 34 33 35 36 36 37 37 38 40 42 42 41 39 35 33 31 30 30 29 29 28 27 26 27 26 24 22 21 22 23 24 23 23 22 22 21 20 19 18 17 16 16 16 15 15
3 3 3 3 2 1 1 1 1 3 3 2 1 1 5 5 3 4 6 4 3 2 2 3 3 4 4 5 5 6 6 7 7 7 7 8 11 16 19 20 22 22 22 22 21 21 22 21 21 26 31 32 32 33 34 35 36 38 38 38 40 41 42 39 32 27 26 28 29 29 28 27 27 27 27 26 26 25 23 22 22 23 24 24 23 22 21 21 21 20 19 18 18 18 18 17 15
3 2 1 1 1 1 3 0 2 1 3 3 4 2 6 5 2 3 4 3 3 3 3 3 4 4 5 5 5 5 5 6 7 7 7 7 10 15 18 20 21 21 21 21 21 21 21 21 19 22 27 29 31 32 33 35 37 37 39 41 39 34 28 24 21 18 19 21 23 25 26 25 25 26 26 27 26 25 25 24 22 24 25 24 23 22 21 22 22 21 20 19 19 20 19 18 16
Wind_Direction
163 165 157 158 174 159 126 144 87 347 81 78 11 6 263 252 251 108 113 129 118 145 147 122 136 140 128 160 180 174 145 167 169 150 192 281 156 156 159 160 159 158 159 159 160 164 164 162 153 144 146 144 143 141 136 137 137 137 138 135 127 126 125 118 118 113 113 110 111 117 127 141 144 145 143 150 151 148 147 125 79 330 19 14 343 328 322 316 335 334 321 323 323 322 329 332 332
162 173 162 147 159 151 214 148 92 337 56 65 331 314 257 302 102 123 137 144 123 152 139 135 147 138 67 119 140 101 63 128 150 145 257 139 146 155 159 160 159 159 160 159 161 164 162 160 153 146 150 151 146 142 140 141 138 138 138 136 133 133 131 124 119 113 112 105 103 108 115 127 135 144 149 163 175 187 201 223 314 341 360 2 347 331 322 312 320 330 327 320 321 325 328 330 332
161 180 158 136 159 160 199 65 96 89 68 82 309 281 240 9 124 136 128 123 291 137 131 134 144 131 73 101 131 109 142 342 132 121 102 146 150 159 161 160 159 159 160 159 163 165 161 159 153 148 155 156 150 145 141 139 137 138 139 139 139 138 136 130 124 121 115 113 117 117 118 117 111 106 95 103 141 198 225 308 350 358 360 348 338 331 325 322 320 323 324 323 326 326 325 327 329
160 178 174 156 157 25 81 53 112 115 94 125 162 285 228 147 141 123 74 41 101 117 131 136 126 126 119 156 164 103 165 281 158 142 140 165 165 160 160 160 161 160 160 161 166 165 160 160 153 152 159 160 155 146 140 137 137 137 139 138 138 140 138 132 129 130 127 133 132 123 115 100 88 79 68 66 57 34 24 5 353 341 338 329 324 324 319 319 317 315 317 322 326 325 323 324 325
165 178 198 191 15 357 95 71 80 81 138 156 127 251 182 222 139 107 60 50 76 85 128 142 114 49 115 162 159 137 186 101 164 168 156 173 168 158 160 161 161 161 161 164 168 165 160 160 155 158 162 160 154 145 145 142 138 138 139 139 138 142 143 138 139 145 148 148 134 120 107 96 86 73 66 61 51 36 25 9 360 348 340 326 316 309 306 311 313 315 317 321 323 325 324 325 329
175 186 217 226 285 193 76 67 34 31 219 159 130 211 170 221 111 110 89 68 55 46 73 138 129 102 95 229 62 162 173 116 161 183 164 169 167 159 160 161 162 162 163 166 169 164 160 161 158 163 164 160 152 148 155 148 144 145 147 149 147 150 148 145 150 155 150 141 129 118 104 95 80 66 56 49 42 30 19 1 355 347 343 334 328 317 310 311 312 315 319 323 323 327 328 331 336
178 203 245 227 263 66 80 93 124 28 269 163 128 255 168 172 136 125 109 90 58 27 18 80 109 100 82 280 69 162 157 136 157 174 166 166 164 159 160 162 162 163 164 168 170 165 161 163 164 167 164 158 152 155 160 151 151 152 155 157 153 149 144 147 150 145 136 134 129 116 97 81 70 66 55 48 37 18 1 350 347 340 341 336 336 333 327 323 321 322 322 326 328 331 333 335 339
202 263 102 89 359 35 90 93 136 163 311 162 98 53 137 158 168 133 115 91 97 129 76 88 79 74 301 345 90 242 89 155 163 164 164 162 162 159 161 163 162 164 166 169 171 167 163 167 171 168 163 160 157 161 160 151 154 155 157 156 150 144 145 153 144 138 137 141 134 118 105 89 79 87 76 60 28 7 355 349 349 341 342 337 335 334 332 333 332 330 327 330 332 334 336 338 339
310 305 34 65 55 25 63 26 344 116 25 40 59 79 109 118 133 122 108 49 99 154 138 138 91 84 283 16 84 300 85 141 151 155 161 161 161 160 163 165 165 165 167 171 172 167 165 171 172 167 164 163 161 166 161 154 160 158 157 157 154 150 157 158 144 149 152 151 144 134 135 143 150 145 67 2 2 5 3 355 351 348 348 341 339 339 335 336 337 335 331 333 335 334 335 337 338
313 9 73 63 66 21 7 354 343 336 69 77 69 124 126 123 95 102 110 80 125 139 137 138 95 118 213 61 101 309 131 146 145 151 161 162 160 162 164 167 168 166 168 172 171 169 169 174 173 169 168 166 166 170 164 160 171 167 162 165 163 161 165 162 157 164 156 156 154 148 156 169 210 217 292 335 355 1 8 0 356 356 352 341 338 344 341 339 340 337 332 333 333 333 333 334 337
332 343 68 75 45 26 358 346 338 320 313 71 74 122 136 154 110 103 110 109 125 108 143 143 114 140 139 91 299 234 147 151 150 153 160 162 162 164 165 167 170 169 171 172 171 171 173 176 174 171 170 169 171 174 170 169 181 177 172 172 169 172 171 169 177 176 167 176 168 161 199 217 246 255 317 350 360 1 8 3 1 354 344 338 337 343 346 344 345 340 335 334 334 332 331 332 335
1 325 51 82 55 8 322 344 323 324 332 40 89 128 138 135 121 148 141 129 143 130 196 178 161 140 99 29 317 127 144 154 157 156 160 162 163 165 166 168 171 172 173 173 171 170 173 177 175 172 172 173 174 179 178 177 187 185 178 177 176 181 177 178 188 186 186 195 188 190 231 237 242 265 336 1 5 7 7 2 0 349 337 334 336 343 349 350 350 345 340 338 336 332 329 330 334
359 311 62 71 91 320 322 351 317 336 337 359 121 161 147 131 155 176 150 134 152 177 233 186 153 108 99 272 57 136 151 159 156 156 160 162 163 166 167 168 171 173 174 172 171 170 173 177 176 173 174 177 178 183 184 183 190 190 184 184 186 187 182 188 196 190 196 204 202 207 228 240 245 255 307 4 10 12 358 350 350 348 343 339 339 348 354 355 357 353 349 345 341 335 330 329 330
278 217 89 73 62 9 318 353 328 357 313 232 133 157 153 149 186 170 141 141 183 202 191 156 143 103 103 131 130 182 164 159 155 155 159 161 164 165 167 170 172 174 174 173 172 172 176 179 177 174 175 180 183 185 186 186 193 194 189 190 191 193 192 198 206 202 209 216 215 221 235 244 247 253 255 342 3 357 341 336 340 346 349 349 349 353 356 357 360 358 353 351 346 339 333 327 322
176 111 85 94 43 8 190 256 359 44 276 195 146 155 139 170 165 146 151 157 211 192 126 134 152 136 172 180 204 192 158 156 155 154 157 160 163 164 167 169 172 175 174 175 175 176 180 180 179 178 178 182 187 187 185 187 197 201 194 195 196 200 206 205 212 217 220 226 225 222 235 246 253 258 252 286 315 323 330 334 338 343 347 352 351 349 351 352 354 355 352 351 348 342 332 322 315
128 94 65 73 59 277 185 196 105 90 268 205 145 144 127 187 155 134 193 156 117 156 143 154 193 169 170 191 176 154 153 155 153 152 154 157 160 162 166 169 173 176 176 179 179 180 183 182 181 182 183 184 189 189 188 187 193 203 200 200 200 202 210 210 213 222 227 234 236 229 232 241 250 252 248 272 290 309 333 335 333 337 341 345 346 342 342 342 345 348 349 350 349 344 333 323 318
78 73 54 10 153 206 195 177 167 172 244 223 150 144 137 173 149 131 156 100 113 169 177 147 170 119 150 158 137 144 150 152 152 151 152 155 158 160 166 172 175 177 180 183 184 185 188 186 183 185 187 187 190 193 194 190 188 199 206 203 204 210 211 212 214 220 229 232 238 237 234 236 241 245 248 268 285 317 344 347 341 334 335 339 340 336 334 336 339 345 347 350 350 346 338 330 324
59 79 77 316 195 208 193 178 194 182 190 199 178 162 159 161 162 161 130 83 100 167 199 118 69 45 108 126 134 142 147 152 154 152 153 157 160 163 168 174 177 181 183 186 189 190 191 191 188 188 191 191 193 196 197 195 190 196 210 208 208 216 214 216 218 218 228 231 234 236 232 236 238 245 256 270 284 303 322 334 335 327 327 330 333 331 332 333 336 344 348 352 353 350 344 336 327
108 110 75 250 207 223 212 173 184 200 189 177 175 167 171 186 164 160 159 161 140 163 206 127 87 70 107 123 134 142 148 155 159 156 158 161 165 168 170 175 179 183 185 188 192 194 195 195 193 193 193 195 198 200 200 200 196 196 209 212 210 216 216 217 222 221 226 232 234 235 233 237 240 249 264 271 279 291 300 312 322 325 321 322 328 327 328 330 331 340 347 353 359 1 355 345 337
160 112 331 252 213 236 249 185 197 227 184 152 169 159 175 234 165 154 169 161 171 184 192 155 146 142 131 134 140 146 152 159 163 162 163 166 170 172 172 176 181 185 188 190 193 196 198 197 197 197 197 199 201 203 204 204 201 200 207 213 212 216 218 217 224 225 226 233 236 237 237 239 244 252 264 269 277 289 298 307 322 330 322 317 324 323 321 321 326 335 344 353 2 5 1 354 349
163 145 204 243 186 233 256 210 203 246 56 138 137 128 187 244 176 179 159 148 213 218 202 184 170 158 146 147 150 152 156 162 167 167 168 171 174 177 178 180 183 187 189 192 196 198 200 201 201 200 201 202 204 206 207 208 206 207 210 213 215 217 218 216 223 228 228 235 237 240 242 241 245 251 259 267 278 290 299 308 321 329 322 315 319 320 317 315 323 332 338 348 358 358 355 354 351
181 220 216 222 150 190 253 216 188 121 73 100 126 153 190 175 179 206 174 175 220 223 206 185 160 158 156 156 156 157 160 165 171 173 174 176 178 179 181 182 184 188 190 193 197 199 201 203 204 203 204 206 207 209 210 211 210 213 214 215 220 220 219 216 221 229 230 234 239 242 243 242 244 249 255 264 277 287 296 308 318 323 320 316 317 317 313 312 322 331 334 342 349 347 346 347 348
213 265 248 235 182 190 231 176 177 132 117 144 168 185 155 146 245 223 194 210 225 6 184 167 157 161 158 156 157 162 166 171 176 178 178 179 181 182 182 184 186 188 191 196 198 199 202 204 206 206 207 208 209 211 213 215 214 219 219 219 225 226 225 222 221 227 231 235 238 241 242 244 246 250 254 260 272 282 292 305 314 318 319 321 321 318 314 314 324 331 331 335 339 338 340 342 344
190 268 281 263 191 205 220 147 157 147 151 189 164 132 154 183 240 199 219 235 248 343 169 155 155 155 154 158 164 170 171 174 179 181 182 183 185 186 185 186 187 190 193 198 201 201 203 205 207 208 210 211 211 212 215 218 218 222 224 225 230 231 232 231 227 229 233 236 239 242 243 246 249 253 256 260 272 280 288 299 308 313 316 319 323 323 319 320 326 330 329 329 330 331 336 339 344
203 236 264 182 179 230 229 132 150 163 171 143 108 148 205 193 220 292 242 246 233 309 134 143 147 151 158 166 169 172 172 175 177 180 184 187 188 188 189 190 189 192 197 200 202 203 204 205 207 210 212 213 214 214 217 220 222 225 227 229 233 235 237 238 237 237 238 239 242 245 246 248 251 255 258 262 274 281 287 295 302 309 313 314 318 324 325 326 328 329 329 327 325 326 331 338 347
214 217 222 133 318 300 108 143 163 167 170 120 133 217 262 220 270 290 252 241 198 138 127 144 147 156 167 170 172 173 174 176 177 180 183 185 186 188 191 193 193 197 200 202 204 206 207 208 210 212 213 215 216 218 220 223 226 228 229 233 236 236 238 242 243 245 246 245 246 249 249 250 252 255 259 263 272 281 289 294 298 305 308 307 312 318 323 328 331 330 328 325 323 323 326 336 345
202 203 178 123 329 323 119 178 180 151 178 164 173 225 275 305 148 258 262 233 158 141 141 155 155 165 172 173 177 174 176 180 179 178 179 182 185 190 193 193 197 200 201 202 206 208 209 211 214 215 215 216 218 221 223 225 229 232 233 237 239 239 241 243 246 250 252 251 251 252 250 249 250 254 257 262 271 279 289 294 297 302 300 298 303 310 317 323 328 331 327 325 324 320 322 330 336
190 156 112 34 343 339 138 180 188 147 188 180 168 236 279 73 179 240 257 131 147 149 152 166 165 172 175 175 179 177 181 181 179 178 180 186 188 190 192 194 198 200 201 204 207 208 210 214 216 218 219 218 220 224 226 228 231 235 236 239 242 243 243 245 249 251 252 253 253 251 247 244 246 252 257 264 272 280 287 290 294 296 293 292 294 301 307 312 319 323 322 322 322 317 316 319 323
95 110 113 327 360 346 234 196 176 155 176 172 136 325 291 196 222 239 216 127 146 147 156 173 175 177 178 178 179 180 182 180 182 186 188 191 191 191 193 196 198 199 203 206 206 208 212 215 218 220 221 221 223 225 228 230 233 236 238 240 243 244 244 246 250 251 251 251 251 247 243 242 244 250 258 264 271 278 284 286 288 289 290 290 289 296 302 303 308 312 313 314 315 314 312 312 314
76 81 112 336 10 328 274 303 130 148 167 154 121 336 282 239 241 248 118 133 140 147 168 177 178 179 178 179 181 184 184 184 188 193 193 194 194 195 196 198 199 200 204 205 206 209 212 215 218 221 222 223 225 226 228 231 234 237 239 242 244 245 245 247 248 249 250 250 247 244 242 242 245 252 259 266 271 275 279 282 283 285 289 289 286 293 300 299 302 305 309 310 313 315 312 311 313
52 13 50 31 5 287 295 327 142 149 185 136 114 229 270 274 272 269 232 152 144 159 176 176 179 178 178 180 182 189 190 193 196 196 197 197 198 198 199 199 200 202 203 205 207 209 211 214 217 220 223 225 225 226 228 231 235 237 239 243 245 246 246 246 246 247 249 249 246 243 242 244 248 254 260 267 271 272 274 277 281 285 289 288 285 291 295 295 301 303 306 310 314 316 311 309 311
34 345 323 347 211 270 306 279 168 156 50 105 118 201 272 285 291 292 222 160 152 166 174 175 181 177 179 184 185 193 197 199 200 200 201 201 201 202 202 202 202 203 205 207 209 210 211 214 218 221 223 225 225 227 228 231 233 236 238 242 245 246 246 244 244 247 251 250 247 243 243 245 250 256 262 268 271 269 269 273 280 286 288 286 284 288 287 289 301 303 300 306 315 318 316 310 308
1 64 267 280 221 288 311 295 215 170 106 118 184 226 279 275 298 338 94 159 156 160 173 176 182 185 183 184 189 193 196 201 203 203 204 204 204 205 205 205 205 206 208 209 209 210 212 215 218 222 225 227 227 227 228 230 232 235 237 241 244 246 245 243 243 248 253 251 248 246 243 245 250 256 263 268 267 264 265 272 280 285 286 284 283 285 282 283 301 304 297 298 310 318 321 319 314
337 17 284 251 200 236 284 302 273 173 143 189 206 239 258 252 288 358 62 155 155 161 181 180 180 189 187 186 192 194 198 204 207 205 204 205 206 207 208 208 208 209 210 211 212 212 214 215 218 222 226 228 229 228 228 229 231 234 236 239 242 245 246 245 246 249 253 252 248 247 245 246 250 256 262 263 261 262 265 271 279 283 283 281 280 280 275 278 297 305 298 294 303 313 319 323 322
305 306 313 298 284 228 239 277 228 163 170 188 170 235 257 260 278 313 290 160 161 172 175 178 184 188 190 192 196 198 205 211 211 209 206 206 207 207 209 210 210 211 211 212 214 214 215 216 218 222 225 227 229 229 227 228 229 231 234 237 240 243 246 247 247 249 252 252 249 249 248 250 253 257 259 259 260 263 266 270 277 280 279 280 280 276 268 268 287 303 302 298 299 305 311 317 322
259 225 192 243 286 270 230 249 226 169 162 195 187 218 253 266 284 287 263 174 170 176 156 170 188 187 194 197 203 204 210 219 215 211 209 209 209 208 208 210 210 211 212 213 214 214 215 216 218 220 224 226 227 226 224 224 225 228 231 233 236 239 243 246 248 249 251 252 250 249 250 252 254 257 259 259 260 264 268 271 276 278 276 276 277 274 266 260 273 290 294 296 297 300 304 306 315
269 218 222 235 257 281 271 275 264 175 152 223 212 228 259 269 288 295 275 164 180 190 174 189 194 194 199 199 209 211 216 223 212 210 211 210 213 212 210 210 210 211 212 212 213 214 215 216 217 219 223 224 223 222 221 220 221 223 226 229 233 237 240 243 246 247 249 249 249 248 249 251 253 257 261 260 260 264 269 272 274 276 275 274 275 275 269 260 263 275 280 285 291 297 300 297 304
240 232 269 285 234 260 289 305 290 185 163 289 235 239 264 275 300 302 200 155 201 207 200 205 200 200 204 205 214 215 218 217 198 204 207 207 211 214 215 213 211 210 210 211 212 213 214 216 217 220 222 222 221 222 221 221 222 224 226 229 233 236 239 242 245 247 247 247 248 248 248 249 253 258 261 260 260 263 268 271 272 275 276 275 274 274 271 262 257 263 270 276 282 292 296 292 296
221 200 182 287 254 262 311 319 324 91 170 304 273 221 270 302 301 268 198 189 210 205 206 208 195 196 205 212 216 215 214 208 203 203 204 205 205 211 218 219 216 213 211 211 212 213 213 215 217 220 221 221 222 223 221 223 227 228 230 233 235 236 240 244 247 248 248 249 250 250 248 248 252 258 259 257 257 262 268 269 270 274 276 275 272 271 270 263 255 256 261 268 276 285 290 290 291
227 180 134 248 259 258 310 312 2 61 105 304 120 200 296 329 331 308 265 244 241 202 205 204 191 199 208 214 214 212 212 212 213 209 208 205 197 205 218 223 221 218 215 212 211 212 212 214 216 219 221 222 222 222 223 227 229 230 231 234 236 238 242 245 248 249 249 251 252 252 248 246 250 255 256 256 257 262 267 268 270 274 275 274 270 268 268 262 254 252 257 262 270 278 284 287 285
274 203 168 222 241 144 148 247 54 26 4 109 72 30 326 337 3 344 319 298 314 209 181 191 212 213 205 214 216 213 215 215 214 210 210 204 194 203 214 221 224 221 219 216 212 211 212 214 216 218 220 222 224 223 225 226 225 226 228 230 233 238 240 241 243 246 247 248 250 249 246 245 249 252 255 258 260 263 266 267 270 273 274 272 267 264 264 262 254 249 253 259 266 273 277 283 284
302 232 192 197 175 126 120 118 79 34 348 285 67 51 306 311 9 350 335 343 337 338 140 200 251 246 214 223 227 226 227 225 224 217 210 208 205 208 213 217 221 223 223 221 217 214 213 215 216 217 219 221 224 225 225 224 221 221 221 220 222 226 230 232 234 238 241 243 245 245 245 247 249 251 255 258 259 263 266 268 272 274 273 269 265 262 261 259 253 247 250 257 265 273 273 276 280
336 252 189 159 115 116 137 148 111 87 266 306 61 121 255 311 2 347 334 341 342 359 20 344 312 281 246 246 256 251 248 243 244 236 219 214 214 214 216 217 217 221 225 224 222 221 218 217 217 217 219 220 223 225 224 221 220 220 219 220 221 221 224 230 235 237 238 241 243 244 245 247 249 251 253 254 257 262 266 270 273 274 271 266 261 259 258 256 250 246 248 256 265 270 268 267 274
289 241 143 123 119 140 165 162 144 176 193 356 17 109 127 305 316 327 333 354 7 12 2 345 334 306 281 268 245 227 226 225 228 233 227 225 222 221 224 223 220 222 226 225 224 225 224 221 221 219 219 221 223 224 223 221 220 220 220 221 223 223 226 233 237 237 238 240 242 244 245 248 250 251 253 254 257 262 266 268 271 271 267 262 257 256 256 253 248 245 244 251 262 265 265 266 272
250 211 136 132 149 160 160 152 153 183 110 342 331 55 100 270 289 329 349 21 11 359 349 343 345 344 358 20 333 255 231 219 213 220 217 217 221 226 232 233 230 228 230 228 225 227 228 226 225 223 221 222 223 223 222 221 222 222 221 221 222 225 229 234 237 237 238 238 239 243 244 246 248 250 252 256 260 263 264 265 267 268 263 257 253 252 252 248 243 239 238 245 256 260 262 266 269
255 145 106 79 75 74 94 129 138 44 60 240 284 39 120 268 305 336 360 24 352 334 332 331 341 0 27 35 21 12 356 325 248 239 223 221 224 227 233 235 233 232 233 234 230 229 230 228 227 226 225 223 223 223 221 222 223 222 221 221 222 225 228 231 233 236 237 236 236 239 241 242 244 248 252 257 261 264 263 261 263 263 260 254 248 246 245 241 237 234 236 243 251 256 258 262 270
322 88 75 49 41 47 54 70 96 67 18 253 264 100 132 262 304 309 329 337 303 302 327 332 338 357 17 25 22 16 9 9 359 341 314 276 253 240 234 231 231 231 232 234 233 230 229 228 226 227 228 226 224 223 221 222 223 221 222 223 224 226 226 226 226 230 233 232 233 235 237 239 241 246 253 257 261 264 262 259 260 260 257 251 243 240 238 236 235 235 238 244 249 253 256 263 274
60 68 57 38 353 17 31 358 44 78 294 261 261 111 124 167 266 270 290 290 284 282 299 319 325 334 349 4 9 4 1 7 6 3 356 347 331 297 265 244 236 230 227 228 229 229 229 228 226 227 228 227 225 223 221 222 222 221 223 224 226 227 226 223 222 226 228 227 230 233 235 238 241 246 251 255 259 261 259 257 257 256 253 248 242 239 238 238 238 239 242 246 249 251 254 261 271
49 38 50 63 360 1 7 331 14 92 254 250 272 10 103 203 240 239 271 281 279 264 254 278 295 305 329 358 5 359 5 8 3 359 352 350 351 340 325 303 277 248 233 229 227 226 227 227 227 225 227 227 224 222 220 221 221 222 223 224 226 228 227 224 223 226 227 227 229 231 233 237 241 244 246 249 253 254 255 256 255 251 249 247 243 240 240 240 241 243 244 248 250 250 251 256 267
22 28 87 93 74 48 326 293 320 274 264 274 301 340 47 282 264 222 227 247 248 246 250 267 284 290 308 350 14 8 9 8 358 353 348 343 339 335 330 323 315 294 265 245 233 227 225 226 226 226 227 226 223 221 220 219 220 223 224 225 226 227 226 225 225 226 228 228 229 230 234 238 240 242 241 243 248 249 252 255 253 249 248 248 246 243 242 242 243 245 245 249 252 249 248 254 266
319 165 141 139 150 138 231 239 216 244 263 299 319 356 161 210 253 219 217 254 264 265 282 282 288 284 288 339 21 17 9 3 354 346 339 335 334 333 329 324 320 314 303 282 255 236 228 225 225 226 227 225 223 222 220 219 221 223 224 225 226 226 227 226 227 228 228 229 230 231 234 238 240 240 238 241 247 246 247 249 249 249 247 247 247 245 244 243 244 246 246 248 252 249 246 252 265
280 148 104 141 179 145 143 188 174 178 203 296 319 306 200 198 258 254 243 320 294 295 317 303 287 290 321 14 17 13 2 353 348 342 335 331 332 334 332 327 322 316 312 305 286 258 239 231 227 227 228 226 224 223 222 222 223 224 224 224 225 226 226 226 227 229 228 229 230 232 235 239 240 239 237 240 246 244 243 244 246 248 247 245 245 244 244 244 245 247 247 247 249 247 244 248 257
277 101 178 242 177 120 111 183 48 75 128 269 301 274 297 335 285 264 284 327 276 255 290 285 293 333 13 25 13 3 350 341 336 329 325 325 329 333 332 327 324 318 312 307 301 287 263 245 235 230 231 229 226 225 225 225 224 223 224 224 224 224 224 225 228 230 230 230 230 231 235 239 240 239 238 240 245 245 243 242 244 246 245 243 243 244 243 243 246 248 247 247 247 242 240 244 249
100 155 217 213 88 85 104 145 11 43 202 272 335 259 286 328 273 276 268 260 258 266 297 311 353 7 15 11 360 350 335 329 325 321 320 321 326 331 330 327 323 318 313 306 302 299 288 266 247 236 233 231 228 226 226 226 223 222 223 223 222 223 224 225 228 231 232 229 228 229 233 236 239 239 238 239 243 245 244 243 244 245 244 243 243 244 244 244 246 247 247 247 244 239 241 246 246
121 171 187 119 111 96 35 142 149 92 221 288 322 303 252 203 226 251 220 226 250 308 339 3 11 10 9 354 341 333 335 339 334 330 328 326 328 330 330 327 324 321 317 312 308 305 300 285 260 243 237 234 231 228 226 225 223 222 223 223 223 224 224 225 227 230 231 229 228 229 230 234 238 238 236 236 240 243 244 245 245 245 244 243 244 246 247 248 246 246 246 245 242 239 243 250 250
14 62 33 35 139 161 174 158 161 162 180 256 313 328 275 227 220 209 207 219 236 285 4 20 8 2 354 329 321 332 344 340 326 321 318 318 326 329 329 326 323 322 319 317 316 313 309 300 272 249 240 236 233 229 228 225 222 222 223 223 224 224 224 225 226 227 228 228 229 230 231 232 235 236 235 235 237 239 243 247 248 246 244 244 245 246 249 250 248 247 245 244 243 242 245 252 254
354 30 16 348 2 109 153 71 76 130 150 179 185 304 269 248 228 218 219 215 201 188 67 29 359 347 323 304 320 340 337 320 307 306 306 313 323 326 327 325 323 323 322 322 322 319 320 314 285 255 242 236 232 229 228 227 224 223 222 223 224 225 224 224 225 228 232 231 230 230 230 231 233 233 233 233 235 237 241 247 248 246 244 244 246 247 249 251 250 247 245 244 243 243 246 250 251
175 109 78 215 240 114 123 334 322 82 125 159 159 213 269 259 262 265 234 177 162 167 105 36 342 318 303 302 319 326 308 297 298 303 307 316 323 324 323 323 323 324 324 326 327 325 328 329 305 266 245 236 232 229 227 227 226 223 223 224 224 224 224 222 221 232 245 246 240 233 228 227 229 231 232 233 236 239 242 246 246 244 243 244 246 249 251 251 250 249 246 243 241 241 243 242 241